Barking Sands, HI

6:50 PM HST on April 22, 2018 (GMT -1000)
Barking Sands PMRF

Weather History for PHBK - October, 2011

Change the Weather History Date:

Friday, October 7, 2011

  Actual Average Record
Temperature  
Mean Temperature 80 °F -  
Max Temperature 84 °F 88 °F 90 °F (1959)
Min Temperature 77 °F 67 °F 64 °F (1976)
Cooling Degree Days 16    
Growing Degree Days 30 (Base 50)    
Moisture  
Dew Point 66 °F    
Average Humidity 59    
Maximum Humidity 66    
Minimum Humidity 53    
Precipitation  
Precipitation 0.00 in - - ()
Sea Level Pressure  
Sea Level Pressure 30.05 in    
Wind  
Wind Speed 3 mph (West)    
Max Wind Speed 9 mph    
Max Gust Speed -    
Visibility 10 miles    
Events      
Averages and records for this station are not official NWS values.
T = Trace of Precipitation, MM = Missing Value Source: NWS Daily Summary

Daily Weather History Graph

Daily Weather History Graph

Search for Another Location

Airport or City:

Astronomy

Oct. 07, 2011 Rise Set
Actual Time 6:32 AM HST 6:21 PM HST
Civil Twilight 6:10 AM HST 6:43 PM HST
Nautical Twilight 5:44 AM HST 7:09 PM HST
Astronomical Twilight 5:18 AM HST 7:35 PM HST
Moon 3:48 PM HST (10/7) 2:58 AM HST (10/7)
Length of Visible Light 12h 33m
Length of Day
11h 48m
Waxing Gibbous, 85% of the Moon is Illuminated
Oct 7
Waxing Gibbous
Oct 11
Full
Oct 19
Last Quarter
Oct 26
New
Nov 2
First Quarter

Hourly Weather History & Observations

Time (HST) Temp. Heat Index Dew Point Humidity Pressure Visibility Wind Dir Wind Speed Gust Speed Precip Events Conditions
12:56 AM 79.0 °F - 64.9 °F 62% 30.05 in 10.0 mi Calm Calm - N/A   Clear
1:56 AM 77.0 °F - 64.9 °F 66% 30.04 in 10.0 mi Calm Calm - N/A   Clear
2:56 AM - - - N/A% 30.03 in 10.0 mi Calm Calm - N/A   Clear
3:56 AM - - - N/A% 30.01 in 10.0 mi Calm Calm - N/A   Clear
4:56 AM - - - N/A% 30.02 in 10.0 mi Calm Calm - N/A   Clear
5:56 AM - - - N/A% 30.03 in 10.0 mi NE 3.5 mph - N/A   Clear
6:56 AM - - - N/A% 30.04 in 10.0 mi NE 3.5 mph - N/A   Clear
7:56 AM - - - N/A% 30.06 in 10.0 mi Calm Calm - N/A   Partly Cloudy
8:56 AM - - - N/A% 30.08 in 10.0 mi West 4.6 mph - N/A   Mostly Cloudy
9:56 AM - - - N/A% 30.09 in 10.0 mi West 5.8 mph - N/A   Mostly Cloudy
10:56 AM 82.9 °F 85.8 °F 68.0 °F 60% 30.09 in 10.0 mi West 6.9 mph - N/A   Mostly Cloudy
11:56 AM - - - N/A% 30.08 in 10.0 mi West 6.9 mph - 0.00 in   Mostly Cloudy
12:56 PM - - - N/A% 30.05 in 10.0 mi WSW 4.6 mph - N/A   Mostly Cloudy
1:56 PM - - - N/A% 30.03 in 10.0 mi West 8.1 mph - N/A   Scattered Clouds
2:56 PM - - - N/A% 30.01 in 10.0 mi West 9.2 mph - N/A   Scattered Clouds
3:56 PM 84.9 °F 87.1 °F 66.0 °F 53% 30.00 in 10.0 mi West 4.6 mph - N/A   Clear
4:56 PM 84.9 °F 87.6 °F 66.9 °F 55% 30.01 in 10.0 mi SSW 8.1 mph - N/A   Mostly Cloudy
5:56 PM 82.9 °F 85.4 °F 66.9 °F 58% 30.01 in 10.0 mi West 4.6 mph - N/A   Partly Cloudy
6:56 PM 82.9 °F 85.0 °F 66.0 °F 56% 30.03 in 10.0 mi Calm Calm - N/A   Mostly Cloudy
7:56 PM 80.1 °F 81.9 °F 64.9 °F 60% 30.05 in 10.0 mi South 3.5 mph - N/A   Partly Cloudy
8:56 PM 80.1 °F 81.7 °F 64.0 °F 58% 30.06 in 10.0 mi SE 3.5 mph - N/A   Clear
9:56 PM 81.0 °F 83.0 °F 66.0 °F 60% 30.07 in 10.0 mi WSW 3.5 mph - N/A   Partly Cloudy
10:56 PM 82.0 °F 84.5 °F 66.9 °F 60% 30.08 in 10.0 mi WNW 5.8 mph - N/A   Partly Cloudy
11:56 PM 80.1 °F 81.9 °F 64.9 °F 60% 30.08 in 10.0 mi Calm Calm - N/A   Partly Cloudy